National Oceanic Atmosphere Administration National Weather Service Headquarters National Weather Service Headquarters
NOAA logo WFO Anchorage Scalable transition graphic NWS logo
Transition from title bar to navgation bar   Aviation Weather 16 AKDT 
blankspace Home   |   Mobile   |   Social Media   |   Mesonet   |   Surface Map   |   Radar   |   Submit Storm Reports =00 GMT 

LocalForecast by City, St or Zip Code

spacer

Forecasts/Products
  Public
  Forecast Discussion
    - With Glossary
  Aviation
  Marine
  Hydrology(RFC)
  Rivers & Lakes AHPS
  Ice Desk
  TV Weather
  Fire Weather
  Avalanche
  Travel 511
  Graphical
  xml logo RSS Feeds
  Marine FTPMail

spacer

Data
  Mesonet
  Model Graphics
  Local Model
  Observations
  Marine Obs
  Satellite/Radar
  Vent Factor
  Soaring Index
  Weather Links

spacer

Climate
  PAFC Climate
  Interactive Climate
  PAFC Records
  Local
  National
  More

spacer

Outreach
  About Us
  Community Outreach
  Kids' Page
  Tour/Speaker Request
  Weather Classroom
  Social Media

spacer

Reports
  COOP Observers
  Local Storm Reports
  Spotter Page
  Submit a Storm Report

spacer

Miscellaneous
  Archived Alaska Weather Stories
  Student Career Opportunities
  Research Papers

spacer

Print Friendly/
Low Bandwidth

  Public Forecasts
  Marine Forecasts

spacer

Contact Us
  mailto pafcweb

spacer

Facebook Follow the National Weather Service in Alaska on Twitter
USA.gov is the U.S. government's official web portal to all federal, state and local government web resources and services.


 ICAO ID:   AAWU Graphics

Internet access to TAFs and METAR observations is for planning purposes only. We can not guarantee the timeliness of internet products. Before flying please get a formal pilot briefing (1-800-992-7433) and ALWAYS file a Flight Plan!Pilot briefings are provided to licensed aircraft pilots, ONLY! Others may not use the above number to obtain weather information.

Check out the Key to TAFs and METARs for help with decoding the information.

A 12 hour summary of TAFs can be found here.

PAFA TAF
PAFA 232338Z 2400/2506  23005KT 6SM -RA BR BKN025 OVC035
     FM240300 26003KT P6SM SCT040
     FM241300 00000KT 3SM BR SCT005
     FM241900 VRB03KT P6SM FEW010 BKN150=


METAR PAFA 232353Z 23005KT 7SM -RA SCT017 BKN027 OVC034 06/03 A2985 RMK
     AO2 SLP114 P0003 60012 T00560028 10056 20006 55002=
METAR PAFA 232353Z 23005KT 7SM -RA SCT017 BKN027 OVC034 06/03 A2985=
METAR PAFA 232253Z 20004KT 5SM -RA BR BKN027 OVC033 04/02 A2984 RMK AO2
     SNE24 SLP114 P0008 T00390017=
METAR PAFA 232253Z 20004KT 5SM -RA BR BKN027 OVC033 04/02 A2984=
METAR PAFA 232153Z 20003KT 4SM -RASN BR BKN027 OVC035 03/00 A2985 RMK
     AO2 RAE17B48 SLP117 P0001 T00280000=
METAR PAFA 232153Z 20003KT 4SM -RASN BR BKN027 OVC035 03/00 A2985=
METAR PAFA 232053Z 00000KT 6SM -SNRA BR BKN027 OVC040 03/M01 A2985 RMK
     AO2 RAB47SNB35 SLP118 VIS HYR E P0000 60000 T00281011
     56003=
METAR PAFA 232053Z 00000KT 6SM -SNRA BR BKN027 OVC040 03/M01 A2985=


National Weather Service
Anchorage Forecast Office
6930 Sand Lake Road
Anchorage, Ak 99502
(907) 266-5105 M-F/7-5pm
About Us
Career Opportunities
Glossary
Disclaimer
Privacy Policy
Credits
Alaska Weather Information Line:
1-800-472-0391